CAPE
13 29 63 118 179 575 805 1104 1055 1265 1449 1588 1679 1681 1476 1449 1214 1581 1627 1417 1455 1569 1582 1537 1506 1419 1430 1466 1472 1635 1621 1206 1022 899 960 542 141 312 475 686 1297 1332 994
0 72 93 243 511 666 924 1074 1124 1436 1323 1522 1715 1701 1547 1496 1484 1592 1452 1421 1426 1566 1561 1480 1443 1366 1380 1328 1282 1267 1522 1433 1290 1070 873 407 150 959 1180 1010 1243 1234 643
1 63 238 381 562 634 746 894 1182 1344 1367 1564 1660 1587 1615 1594 1653 1694 1553 1658 1602 1521 1507 1513 1509 1399 1365 1250 1153 1007 1002 1274 1233 760 1204 141 506 894 926 1371 1338 1070 516
80 223 267 505 654 601 563 828 1102 1115 1329 1629 1697 1528 1591 1533 1685 1691 1667 1620 1472 1426 1413 1407 1392 1441 1353 1255 1147 888 850 901 958 867 993 298 389 1127 1311 1273 1407 891 710
206 231 580 671 944 851 722 843 941 1106 1276 1404 1635 1629 1615 1450 1603 1646 1584 1439 1394 1388 1376 1387 1328 1221 1189 1132 1090 1009 865 899 799 1209 1024 501 682 1055 966 1093 1298 1310 999
125 296 811 914 1139 1266 1134 1015 1055 1108 1236 1412 1587 1615 1532 1351 1575 1448 1400 1330 1368 1534 1541 1617 1472 1365 1233 1098 1034 848 911 1082 900 570 91 517 587 954 636 1141 1200 1146 1106
112 552 858 1022 1195 1476 1325 1217 1383 1221 1116 1473 1485 1613 1512 1414 1532 1288 1207 1210 1471 1637 1778 1623 1334 1082 1190 1147 1076 997 1098 1086 993 966 205 316 718 1380 1357 1307 1071 1126 1115
100 387 785 1258 1224 1405 1501 1552 1579 1291 1190 1456 1464 1462 1465 1286 1234 1012 966 1153 1394 1589 1542 1500 1014 832 875 931 977 980 924 851 291 370 198 305 918 362 931 831 1297 1262 1267
340 426 892 1354 1530 1444 1652 1685 1596 1271 1291 1417 1341 1273 1335 1155 1171 917 861 1054 976 1118 1230 1145 1085 950 980 1081 1065 847 1018 807 0 0 271 230 1041 281 224 866 1092 670 1211
628 721 765 1205 1481 1438 1554 1423 1331 1399 1400 1197 1045 971 1110 1105 1051 1165 1003 1123 822 806 1063 1360 1234 1066 857 891 1069 986 960 63 141 0 48 401 963 1226 976 635 1099 909 1115
751 740 958 1133 1266 953 919 1234 1445 1402 1205 842 715 812 469 817 835 848 1286 1156 746 706 1059 998 1075 1040 827 675 1296 1370 1184 449 100 147 599 575 692 843 1138 1258 1043 1045 1195
702 914 834 781 628 709 795 932 727 710 634 282 424 516 588 785 898 977 1046 877 869 1278 716 1313 1096 1019 1141 845 851 1000 979 595 6 3 489 460 673 1474 999 960 1125 756 997
507 800 1077 1158 914 564 537 262 691 676 287 469 906 1069 1107 1158 1377 1087 605 278 964 891 1135 1325 1064 786 1376 1175 1210 1323 456 107 0 46 440 443 926 1784 1768 1018 827 1022 615
631 495 586 432 972 508 673 357 936 957 845 824 924 1253 1601 1412 1067 1068 1073 781 1059 1255 1052 458 1132 1117 1563 1618 1304 1492 686 426 110 567 481 821 1071 1352 2065 1618 966 994 851
566 725 608 419 645 737 871 378 1027 1074 1093 1051 1233 1395 620 932 850 1364 1286 1431 1120 1300 1213 732 819 1156 1477 1339 1152 1134 706 744 399 310 578 658 904 784 1385 2102 1940 1275 1311
797 708 884 651 654 893 1128 1105 1656 1210 897 1166 1258 981 859 1249 914 1232 1526 1571 1179 885 1164 1257 1143 1133 1311 964 939 1320 771 608 932 959 924 988 799 621 552 975 1638 2036 1542
211 397 986 796 974 1210 1006 1281 1107 1075 761 777 855 1242 793 1079 1091 872 992 941 1300 1103 1168 970 956 1116 753 347 2 1073 821 543 748 908 801 909 989 866 659 749 780 1313 2089
221 961 1032 896 587 419 587 1164 943 808 774 826 913 1054 1179 1513 1443 1334 1051 1119 1722 1132 900 785 859 415 49 0 0 0 206 0 0 8 2 9 308 933 990 625 471 556 955
352 692 654 912 773 711 475 1226 1137 534 935 1158 994 1253 1151 1448 1570 1412 1373 1199 1348 1298 1236 976 625 115 0 0 0 0 0 0 0 14 25 79 297 568 1053 827 569 474 609
443 684 788 796 1129 1064 1216 1192 1183 1002 1357 1602 1117 906 1232 1275 1460 1157 1401 1457 1142 1237 806 655 437 70 0 0 0 0 0 0 0 44 91 78 377 551 763 1060 823 879 704
635 764 619 845 1400 1314 1331 1157 1281 1476 1049 1081 1340 1551 1334 1303 1386 1321 1276 1245 1248 1208 646 468 24 0 0 0 0 0 0 0 0 33 19 14 30 412 716 703 658 1095 867
491 764 677 773 1294 1436 1315 1251 1192 1174 1114 728 815 1446 1526 1333 1084 1045 946 960 1012 814 539 117 0 0 0 0 0 0 0 1 14 17 5 0 0 163 126 34 238 557 754
423 698 810 860 1143 1483 1605 1422 1122 985 875 1117 1395 1412 1458 1309 1288 1627 1151 926 891 842 501 67 0 0 0 0 0 0 0 8 30 26 2 0 0 0 0 0 0 41 708
491 742 853 968 1156 1414 1567 1295 908 808 1547 1476 1529 1495 1525 1365 1468 1369 1337 886 1066 517 492 1 0 0 0 0 0 0 0 0 11 25 2 0 0 0 0 0 0 0 7
502 720 1039 996 1313 1231 1261 1292 817 785 1097 1284 990 1063 1351 1516 1204 1126 1203 1209 870 607 150 0 0 0 16 17 1 42 0 0 0 0 7 13 9 0 0 0 0 0 0
599 890 1151 1066 1153 1391 1126 1081 1693 1468 985 514 614 942 1187 944 850 1051 981 987 761 194 8 10 17 0 16 22 9 0 0 0 0 0 0 0 0 1 3 0 0 0 0
CIN
-0 -3 -3 -3 -4 -0 -0 -0 -6 -5 -2 -0 -1 -0 -17 -15 -30 -1 -1 -2 -3 -2 -0 -0 -0 -7 -3 -1 -11 -12 -8 -21 -27 -17 -13 -32 -106 -43 -16 -3 -0 -0 -1
-0 -1 -8 -0 -0 -0 -0 -0 -2 -0 -3 -0 -0 -1 -6 -10 -1 -1 -2 -1 -3 -0 -0 -1 -0 -3 -7 -10 -21 -16 -3 -5 -9 -10 -12 -28 -99 -7 -0 -1 -0 -0 -14
-1 -3 -4 -0 -0 -0 -3 -1 -0 -0 -1 -0 -0 -2 -5 -0 -1 -0 -2 -0 -0 -0 -1 -0 -0 -1 -2 -16 -22 -24 -22 -3 -2 -8 -1 -76 -21 -9 -5 -0 -0 -0 -23
-10 -2 -2 -0 -1 -6 -16 -5 -0 -4 -1 -0 -0 -5 -1 -0 -0 -3 -0 -0 -0 -4 -2 -0 -1 -0 -8 -19 -21 -29 -30 -23 -17 -7 -4 -24 -18 -2 -0 -0 -0 -3 -20
-10 -10 -1 -3 -0 -1 -17 -8 -9 -9 -2 -1 -1 -1 -1 -6 -5 -0 -2 -4 -4 -2 -1 -3 -6 -16 -22 -27 -31 -41 -41 -32 -11 -11 -19 -17 -18 -7 -2 -0 -0 -0 -2
-32 -27 -5 -3 -0 -0 -1 -3 -6 -8 -4 -3 -3 -3 -3 -15 -2 -13 -16 -13 -8 -0 -0 -0 -1 -11 -18 -26 -38 -56 -44 -35 -10 -25 -114 -31 -39 -4 -21 -0 -0 -0 -1
-44 -22 -12 -7 -3 -0 -0 -0 -0 -7 -19 -8 -13 -1 -10 -17 -11 -21 -23 -24 -6 -1 -0 -1 -11 -32 -27 -35 -38 -35 -33 -13 -10 -7 -53 -53 -40 -0 -0 -0 -0 -1 -0
-80 -45 -24 -2 -3 -0 -0 -0 -0 -11 -19 -9 -13 -20 -23 -29 -33 -36 -39 -28 -22 -20 -19 -20 -42 -54 -51 -51 -37 -26 -21 -8 -98 -70 -88 -70 -41 -80 -8 -0 -0 -0 -0
-57 -59 -21 -0 -0 -2 -0 -0 -1 -19 -17 -17 -28 -34 -33 -38 -35 -42 -44 -38 -41 -41 -40 -42 -48 -54 -36 -29 -38 -25 -14 -38 -0 -0 -149 -65 -49 -111 -103 -14 -0 -6 -0
-54 -54 -36 -3 -1 -4 -1 -5 -19 -14 -20 -42 -54 -57 -49 -45 -50 -48 -48 -41 -43 -49 -38 -28 -31 -49 -40 -50 -53 -26 -9 -144 -131 -0 -281 -58 -47 -27 -27 -58 -3 -4 -0
-48 -58 -29 -20 -15 -45 -46 -29 -17 -20 -43 -70 -74 -65 -60 -61 -66 -54 -28 -19 -44 -60 -46 -47 -50 -63 -63 -78 -40 -32 -22 -108 -49 -184 -115 -38 -68 -51 -16 -11 -15 -5 -0
-54 -43 -53 -56 -79 -75 -70 -62 -81 -86 -92 -110 -84 -79 -67 -56 -53 -30 -2 -30 -29 -37 -56 -39 -41 -56 -48 -60 -70 -46 -63 -100 -99 -19 -129 -104 -14 -14 -38 -34 -20 -20 -2
-68 -57 -39 -40 -60 -93 -80 -121 -88 -93 -111 -99 -71 -60 -47 -35 -17 -30 -84 -113 -62 -40 -50 -41 -43 -54 -23 -30 -33 -45 -103 -176 -0 -160 -87 -94 -47 -6 -10 -32 -36 -4 -38
-37 -73 -72 -80 -42 -92 -64 -88 -71 -80 -84 -87 -70 -54 -31 -15 -18 -26 -42 -37 -41 -28 -40 -67 -35 -38 -17 -20 -25 -13 -55 -102 -175 -135 -122 -54 -26 -19 -9 -12 -37 -14 -11
-60 -42 -72 -73 -68 -52 -48 -85 -62 -45 -58 -56 -41 -37 -33 -31 -26 -24 -22 -21 -25 -25 -32 -33 -38 -27 -15 -17 -17 -15 -19 -78 -136 -128 -83 -65 -33 -23 -24 -3 -1 -10 -2
-51 -71 -54 -54 -74 -40 -22 -25 -14 -13 -34 -36 -35 -31 -35 -34 -41 -26 -22 -24 -23 -30 -23 -15 -12 -20 -21 -19 -22 -15 -18 -21 -61 -49 -50 -50 -47 -28 -30 -24 -4 -0 -4
-96 -98 -65 -72 -35 -28 -28 -11 -23 -24 -16 -16 -27 -28 -34 -40 -33 -27 -27 -25 -13 -22 -22 -16 -25 -29 -31 -35 -7 -12 -8 -10 -11 -19 -26 -29 -25 -18 -23 -21 -26 -12 -1
-93 -101 -78 -72 -89 -100 -73 -30 -39 -24 -24 -18 -27 -26 -28 -34 -32 -26 -22 -20 -16 -27 -26 -29 -30 -29 -135 -0 -0 -0 -60 -0 -0 -18 -5 -32 -49 -24 -30 -30 -27 -27 -16
-116 -97 -116 -93 -92 -96 -120 -37 -35 -66 -29 -24 -25 -26 -24 -20 -21 -20 -23 -20 -18 -22 -30 -24 -30 -152 -0 -0 -0 -0 -0 -0 -0 -11 -16 -126 -111 -36 -45 -22 -17 -18 -14
-127 -102 -95 -102 -118 -108 -73 -56 -31 -30 -18 -13 -23 -21 -32 -29 -28 -23 -20 -18 -21 -18 -36 -34 -70 -171 -0 -0 -0 -0 -0 -0 -0 -183 -131 -135 -64 -51 -39 -24 -27 -28 -33
-115 -121 -136 -102 -95 -114 -92 -76 -41 -8 -22 -16 -20 -26 -36 -38 -32 -18 -19 -20 -23 -22 -44 -73 -255 -0 -0 -0 -0 -0 -0 -0 -0 -59 -41 -33 -41 -68 -44 -34 -40 -49 -37
-135 -141 -144 -131 -85 -98 -97 -73 -49 -22 -27 -66 -69 -32 -30 -25 -26 -24 -30 -20 -22 -30 -70 -160 -28 -0 -0 -0 -0 -0 -0 -8 -22 -33 -37 -9 -0 -74 -149 -160 -121 -50 -41
-143 -145 -148 -137 -101 -78 -61 -43 -41 -50 -68 -50 -34 -29 -24 -36 -31 -21 -28 -39 -40 -61 -76 -188 -0 -0 -0 -0 -0 -0 -0 -14 -120 -98 -57 -0 -0 -0 -0 -0 -0 -61 -28
-158 -152 -145 -127 -95 -73 -46 -54 -88 -86 -9 -17 -34 -30 -38 -38 -24 -24 -21 -52 -40 -103 -102 -21 -0 -0 -0 -0 -0 -0 -0 -0 -20 -77 -28 -0 -0 -0 -0 -0 -0 -0 -47
-205 -194 -164 -134 -102 -96 -78 -77 -123 -119 -47 -23 -59 -49 -41 -31 -49 -43 -52 -39 -64 -99 -194 -0 -2 -0 -254 -274 -30 -133 -0 -0 -0 -0 -13 -20 -46 -2 -0 -0 -0 -0 -0
-239 -227 -185 -169 -143 -104 -129 -135 -49 -52 -72 -129 -92 -61 -57 -74 -90 -71 -84 -81 -85 -180 -279 -297 -269 -0 -258 -225 -226 -0 -0 -0 -0 -0 -0 -0 -0 -20 -44 -0 -0 -0 -0
Wind_Speed
32 36 38 40 36 33 29 24 19 15 15 9 12 15 17 18 20 23 27 22 18 13 8 13 14 15 16 20 22 23 24 24 26 25 26 24 25 22 21 25 14 9 9
39 37 38 35 31 27 16 15 14 16 15 9 9 16 20 19 25 28 27 20 16 12 3 11 14 18 20 21 22 22 23 23 24 25 26 26 27 27 18 25 19 15 14
38 38 38 36 32 25 19 17 17 17 15 12 19 20 21 26 27 26 26 26 16 9 9 13 16 19 20 22 22 21 21 21 20 22 24 25 26 26 24 24 22 18 18
39 38 37 37 35 33 28 25 27 28 26 28 25 24 26 27 25 26 26 26 18 11 15 19 19 18 20 22 21 19 19 18 17 16 20 24 25 24 23 24 24 21 22
37 37 37 36 34 34 32 32 32 30 29 29 28 27 28 27 26 26 25 24 22 20 17 16 17 18 19 20 21 20 20 7 10 10 23 23 23 25 25 24 25 23 21
35 36 35 34 34 33 32 33 31 30 29 28 27 27 27 26 25 23 22 20 17 13 8 8 11 16 18 21 15 10 11 15 13 14 23 23 23 25 25 24 24 22 21
33 34 33 33 32 31 32 32 31 30 28 26 27 26 25 25 23 22 20 18 15 14 13 12 13 17 22 22 21 18 12 14 15 15 14 20 22 23 24 24 23 21 21
31 31 31 31 32 32 32 31 30 29 28 27 26 25 24 23 22 21 21 19 16 12 13 18 18 18 22 20 21 21 19 17 19 16 11 14 21 21 23 23 22 21 21
28 28 30 31 32 32 32 31 30 29 27 26 24 23 22 21 20 19 19 18 17 18 17 19 20 21 21 20 18 21 21 21 23 19 15 17 20 19 20 21 21 21 20
26 27 31 32 32 32 32 31 30 28 26 25 23 22 21 19 18 18 17 16 16 15 14 13 11 10 14 21 10 19 20 20 21 24 19 19 19 19 19 18 17 18 19
25 28 31 32 32 32 31 30 28 27 25 23 22 21 19 18 17 17 16 14 16 15 13 13 13 12 10 10 11 16 19 19 21 17 19 18 19 19 18 16 16 16 17
27 30 31 32 32 31 30 28 27 26 24 23 22 20 18 16 16 16 13 14 14 14 13 12 13 12 12 14 13 15 21 19 16 15 19 18 17 18 18 15 14 15 14
29 33 32 32 32 31 29 27 26 25 24 23 21 20 18 16 15 16 17 12 14 14 12 14 13 14 12 14 13 12 20 17 17 20 18 18 18 17 17 15 14 14 14
32 33 32 32 31 31 28 26 25 24 23 21 21 19 18 16 14 19 18 15 14 13 16 14 14 9 9 14 13 13 15 15 16 18 17 16 17 17 17 15 14 13 12
34 33 33 33 31 29 27 25 24 23 22 20 20 19 18 17 15 15 15 16 14 15 16 12 13 12 11 13 14 14 15 15 15 14 16 15 15 15 15 15 14 13 12
33 34 33 32 29 27 27 24 22 20 21 19 19 18 17 15 16 15 14 14 12 13 14 12 11 12 11 12 9 12 13 15 14 14 14 12 13 13 13 13 13 13 13
33 34 29 30 28 25 25 23 23 21 20 19 18 19 18 15 14 13 12 11 12 14 13 14 14 9 13 12 18 13 11 12 14 13 13 12 12 12 12 13 13 12 13
30 25 26 28 27 23 24 23 23 23 21 20 16 17 17 14 13 13 11 11 12 12 14 14 13 14 18 16 16 19 10 14 13 12 13 13 12 12 13 12 12 12 12
26 23 26 23 22 23 22 21 21 23 23 20 13 16 17 13 12 11 11 10 10 12 12 13 14 16 19 21 19 22 17 16 16 18 15 16 17 14 12 12 12 11 11
24 25 23 21 20 21 20 19 20 23 23 18 15 14 13 12 10 11 9 10 9 13 13 13 14 17 20 15 19 21 16 17 16 18 19 18 18 19 17 14 13 10 10
22 22 23 20 16 18 17 17 18 21 22 19 15 13 13 11 9 8 8 8 10 9 12 14 16 17 18 17 20 19 16 14 16 16 18 19 19 18 18 17 17 17 14
23 21 21 19 15 16 14 15 15 18 21 19 16 9 10 10 8 9 9 9 10 12 13 14 17 19 19 18 20 17 17 14 15 15 16 19 19 16 17 18 17 15 14
24 22 21 20 17 15 13 14 15 15 20 19 16 11 12 10 8 10 11 12 12 12 13 14 16 18 18 18 19 18 18 15 13 13 14 16 17 16 15 17 18 16 14
22 21 20 19 17 15 15 14 15 16 14 14 14 12 12 11 13 12 12 13 13 13 13 14 16 17 17 18 19 16 16 15 15 13 13 14 14 14 14 15 16 15 13
20 20 19 19 16 16 15 15 17 18 19 14 10 10 13 15 15 14 15 15 15 15 14 15 15 16 15 16 18 16 16 15 15 14 12 15 13 11 10 11 12 13 12
20 19 17 19 19 17 17 18 17 17 16 17 15 10 14 16 14 15 15 15 13 13 13 13 14 15 15 13 14 16 17 17 15 14 14 16 19 10 6 9 8 9 9
Wind_Direction
123 129 137 122 106 98 94 89 84 79 70 64 55 52 49 48 49 57 67 52 38 20 167 147 143 141 142 134 127 121 115 115 108 115 111 114 104 132 160 133 63 34 31
132 135 119 109 99 91 86 88 85 75 68 59 50 51 54 49 65 77 70 45 30 10 254 156 146 130 128 124 123 122 118 115 117 111 107 107 98 97 51 104 71 58 53
125 129 125 116 103 92 86 85 82 76 68 57 63 58 57 70 77 69 71 71 24 348 343 156 139 125 124 112 115 118 122 120 125 117 108 102 104 85 73 76 77 66 64
125 127 126 122 118 112 99 93 97 97 91 96 78 70 73 78 74 79 83 76 133 167 144 125 124 127 114 101 101 123 126 130 130 140 132 105 99 84 71 77 80 73 73
122 123 124 122 120 118 113 117 119 112 109 108 96 89 95 106 109 108 97 108 109 119 134 131 125 124 117 105 98 101 103 200 177 163 105 88 87 96 89 88 86 80 73
116 119 120 122 123 121 120 126 125 116 113 112 99 106 113 109 112 118 118 124 133 155 196 208 169 131 113 85 142 185 309 346 347 358 67 77 82 102 104 95 87 79 76
115 120 121 122 123 120 122 125 125 121 111 104 108 114 107 110 116 119 125 130 143 146 145 152 146 120 49 59 70 15 312 347 345 8 10 54 85 97 110 100 87 75 77
114 118 120 122 125 124 127 129 129 126 122 123 128 119 116 110 111 111 114 123 134 162 156 116 123 119 70 91 54 38 22 355 359 344 298 49 85 88 110 112 94 80 82
112 114 120 128 131 130 132 134 136 138 138 138 141 138 132 125 124 123 120 120 119 111 116 98 89 44 20 4 347 35 31 49 52 59 226 174 94 78 96 96 93 86 83
109 115 127 132 139 136 140 141 145 146 145 147 149 149 145 140 140 133 133 135 134 138 138 143 168 189 126 59 155 56 42 58 67 75 156 149 107 92 96 82 79 80 84
112 122 131 139 142 141 146 150 149 150 151 155 155 155 154 155 156 150 150 153 142 138 146 152 149 162 164 159 135 99 75 75 77 99 112 121 106 106 99 84 79 82 80
124 130 135 143 146 144 148 148 150 156 159 161 160 161 164 171 182 160 171 163 159 146 159 156 150 143 142 111 114 108 70 93 92 111 102 104 123 109 101 81 74 83 74
131 142 142 146 150 149 148 146 152 156 155 159 162 163 163 173 177 86 160 169 151 161 139 132 150 134 142 111 116 119 68 97 101 98 105 115 138 120 108 94 76 91 83
142 149 145 146 145 151 146 148 153 153 157 155 163 164 159 175 191 106 119 133 147 143 93 101 130 173 167 97 101 99 92 98 99 87 89 118 126 131 121 110 89 96 89
154 155 154 151 149 148 152 157 157 163 164 157 155 150 151 146 164 144 122 105 132 103 86 119 108 114 104 87 89 82 78 98 101 102 98 111 125 122 128 122 117 114 111
159 155 150 154 147 146 153 154 165 155 156 147 146 146 139 101 99 98 118 107 142 114 83 106 118 99 105 84 95 86 89 80 101 107 101 109 137 123 118 116 125 134 135
155 164 150 153 151 149 157 165 176 176 164 134 142 153 141 116 90 99 118 127 95 83 69 66 75 116 74 69 39 67 81 82 76 96 91 98 118 124 116 114 123 127 140
151 138 143 152 158 158 159 165 173 182 181 177 142 133 140 115 100 94 128 133 78 74 52 55 60 50 24 38 37 4 73 53 63 71 71 92 100 109 122 117 112 116 128
149 143 149 149 153 154 156 158 167 178 187 191 118 126 141 129 102 105 123 117 117 56 60 55 53 38 18 20 13 358 34 38 47 44 77 65 40 74 94 104 98 101 102
154 155 155 151 150 152 151 149 160 174 188 164 143 148 148 137 113 112 110 85 91 45 52 48 42 32 12 40 20 2 39 41 39 39 43 40 38 36 42 58 60 95 102
159 159 162 158 149 152 149 148 153 168 176 175 153 150 149 131 102 106 109 79 74 75 51 54 38 29 27 36 16 16 23 53 53 43 55 39 33 39 36 36 30 32 39
165 165 165 164 155 156 152 148 149 160 173 170 164 125 126 123 102 108 104 104 92 75 68 56 38 38 33 33 22 31 19 37 43 51 37 30 13 39 36 33 29 37 34
171 170 169 167 163 160 154 151 153 154 174 178 173 146 146 143 113 111 115 92 98 87 72 52 42 33 31 30 30 25 18 21 21 33 35 33 37 40 40 30 32 36 40
174 173 173 170 168 163 161 159 164 165 156 152 150 156 158 141 133 120 104 102 93 84 79 60 46 37 32 33 18 34 29 29 14 12 20 27 35 41 46 44 42 41 43
174 175 176 174 173 171 171 169 170 170 172 158 135 135 148 139 132 118 119 115 102 93 86 73 53 35 20 20 18 24 29 24 20 12 17 4 19 36 48 60 54 47 52
173 173 175 177 177 176 176 177 172 170 166 169 156 124 123 133 124 129 109 110 96 92 88 76 69 64 65 35 30 3 8 14 18 12 10 360 357 22 44 39 54 48 45